| time (UTC) | temp F | wind direction | speed MPH | gust MPH | rain 1hr in | rain 24hr in | rain mn in | humidity % | barometer mb |
| 20260508084835 | 50 | 45 | 0.0 | 0.0 | 0.00 | 0.00 | 0.00 | 97 | 1016.7 |
| 20260508084320 | 50 | 203 | 0.0 | 0.0 | 0.00 | 0.00 | 0.00 | 97 | 1016.7 |
| 20260508083819 | 50 | 45 | 2.0 | 2.0 | 0.00 | 0.00 | 0.00 | 97 | 1016.7 |
| 20260508083300 | 50 | 113 | 0.0 | 0.0 | 0.00 | 0.00 | 0.00 | 97 | 1016.7 |
| 20260508082219 | 50 | 180 | 0.0 | 0.0 | 0.00 | 0.00 | 0.00 | 97 | 1016.7 |
| 20260508080625 | 50 | 68 | 2.0 | 2.0 | 0.00 | 0.00 | 0.00 | 97 | 1016.7 |
| 20260508080124 | 50 | 23 | 2.0 | 2.0 | 0.00 | 0.00 | 0.00 | 97 | 1016.7 |
| 20260508075030 | 50 | 0 | 0.0 | 0.0 | 0.00 | 0.00 | 0.00 | 97 | 1016.7 |
| 20260508074510 | 50 | 0 | 0.0 | 0.0 | 0.00 | 0.00 | 0.00 | 97 | 1016.7 |
| 20260508073950 | 51 | 0 | 0.0 | 0.0 | 0.00 | 0.00 | 0.00 | 97 | 1016.7 |
| 20260508073435 | 50 | 0 | 0.0 | 0.0 | 0.00 | 0.00 | 0.00 | 97 | 1016.7 |
| 20260508072915 | 50 | 0 | 0.0 | 0.0 | 0.00 | 0.00 | 0.00 | 97 | 1016.7 |
| 20260508072356 | 50 | 0 | 0.0 | 0.0 | 0.00 | 0.00 | 0.00 | 97 | 1016.7 |
| 20260508071855 | 50 | 0 | 0.0 | 0.0 | 0.00 | 0.00 | 0.00 | 97 | 1016.7 |
| 20260508071335 | 50 | 0 | 0.0 | 0.0 | 0.00 | 0.00 | 0.00 | 96 | 1016.7 |
| 20260508070820 | 50 | 0 | 2.0 | 2.0 | 0.00 | 0.00 | 0.00 | 96 | 1016.7 |
| 20260508070300 | 50 | 0 | 0.0 | 0.0 | 0.00 | 0.00 | 0.00 | 96 | 1016.5 |
| 20260508065220 | 50 | 0 | 1.0 | 1.0 | 0.00 | 0.00 | 0.01 | 96 | 1016.5 |
| 20260508064705 | 50 | 0 | 0.0 | 0.0 | 0.00 | 0.00 | 0.01 | 96 | 1016.5 |
| 20260508064145 | 48 | 0 | 0.0 | 0.0 | 0.00 | 0.00 | 0.01 | 95 | 1016.7 |
| 20260508063645 | 47 | 248 | 0.0 | 0.0 | 0.00 | 0.00 | 0.01 | 94 | 1016.7 |
| 20260508062604 | 47 | 180 | 0.0 | 0.0 | 0.00 | 0.00 | 0.01 | 94 | 1016.5 |
| 20260508062044 | 48 | 248 | 0.0 | 0.0 | 0.00 | 0.00 | 0.01 | 94 | 1016.5 |
| 20260508061030 | 48 | 225 | 0.0 | 0.0 | 0.00 | 0.00 | 0.01 | 94 | 1016.5 |
| 20260508060510 | 48 | 225 | 0.0 | 0.0 | 0.00 | 0.00 | 0.01 | 94 | 1016.7 |
| 20260508055950 | 48 | 203 | 0.0 | 0.0 | 0.00 | 0.00 | 0.01 | 94 | 1016.7 |
| 20260508055434 | 48 | 225 | 0.0 | 0.0 | 0.00 | 0.00 | 0.01 | 94 | 1016.5 |
| 20260508054915 | 49 | 225 | 0.0 | 0.0 | 0.00 | 0.00 | 0.01 | 94 | 1016.5 |
| 20260508054355 | 49 | 225 | 0.0 | 0.0 | 0.00 | 0.00 | 0.01 | 94 | 1016.7 |
| 20260508053835 | 49 | 248 | 0.0 | 0.0 | 0.00 | 0.00 | 0.01 | 94 | 1016.7 |
| 20260508052800 | 49 | 248 | 0.0 | 0.0 | 0.00 | 0.00 | 0.01 | 94 | 1016.5 |
| 20260508052240 | 50 | 225 | 0.0 | 0.0 | 0.00 | 0.00 | 0.01 | 94 | 1016.5 |
| 20260508051200 | 50 | 248 | 0.0 | 0.0 | 0.00 | 0.00 | 0.01 | 94 | 1016.5 |
| 20260508050645 | 50 | 225 | 0.0 | 0.0 | 0.00 | 0.00 | 0.01 | 93 | 1016.5 |
| 20260508050125 | 50 | 225 | 0.0 | 0.0 | 0.00 | 0.00 | 0.01 | 93 | 1016.5 |
| 20260508045625 | 50 | 225 | 0.0 | 0.0 | 0.00 | 0.00 | 0.01 | 93 | 1016.5 |
| 20260508045125 | 50 | 248 | 0.0 | 0.0 | 0.00 | 0.00 | 0.01 | 93 | 1016.5 |
| 20260508044045 | 51 | 225 | 0.0 | 0.0 | 0.00 | 0.00 | 0.01 | 92 | 1016.5 |
| 20260508043545 | 51 | 225 | 0.0 | 0.0 | 0.00 | 0.00 | 0.01 | 92 | 1016.5 |
| 20260508043030 | 51 | 225 | 0.0 | 0.0 | 0.00 | 0.00 | 0.01 | 92 | 1016.2 |
| 20260508042010 | 51 | 225 | 0.0 | 0.0 | 0.00 | 0.00 | 0.01 | 91 | 1016.2 |
| 20260508041451 | 51 | 248 | 0.0 | 0.0 | 0.00 | 0.00 | 0.01 | 91 | 1016.2 |
| 20260508040950 | 51 | 248 | 0.0 | 0.0 | 0.00 | 0.00 | 0.01 | 90 | 1016.2 |
| 20260508035930 | 52 | 248 | 0.0 | 0.0 | 0.00 | 0.00 | 0.01 | 90 | 1016.0 |
| 20260508034855 | 53 | 225 | 0.0 | 0.0 | 0.00 | 0.00 | 0.01 | 88 | 1015.8 |
| 20260508033815 | 54 | 180 | 0.0 | 0.0 | 0.00 | 0.00 | 0.01 | 85 | 1015.6 |
| 20260508033300 | 55 | 270 | 0.0 | 0.0 | 0.00 | 0.00 | 0.01 | 84 | 1015.6 |
| 20260508032740 | 55 | 225 | 0.0 | 0.0 | 0.00 | 0.00 | 0.01 | 84 | 1015.6 |
| 20260508032220 | 56 | 180 | 0.0 | 0.0 | 0.00 | 0.00 | 0.01 | 83 | 1015.6 |
| 20260508031700 | 56 | 225 | 0.0 | 0.0 | 0.00 | 0.00 | 0.01 | 82 | 1015.6 |
| 20260508031145 | 57 | 270 | 0.0 | 0.0 | 0.00 | 0.00 | 0.01 | 80 | 1015.6 |
| 20260508030625 | 58 | 248 | 1.0 | 1.0 | 0.00 | 0.00 | 0.01 | 79 | 1015.5 |
| 20260508030105 | 59 | 248 | 2.0 | 2.0 | 0.00 | 0.00 | 0.01 | 78 | 1015.5 |
| 20260508025031 | 60 | 248 | 2.0 | 2.0 | 0.00 | 0.00 | 0.01 | 75 | 1015.3 |
| 20260508024510 | 61 | 225 | 3.0 | 3.0 | 0.00 | 0.00 | 0.01 | 74 | 1015.3 |
| 20260508023950 | 62 | 203 | 3.0 | 3.0 | 0.00 | 0.00 | 0.01 | 72 | 1015.3 |
| 20260508023430 | 64 | 225 | 3.0 | 3.0 | 0.00 | 0.00 | 0.01 | 70 | 1015.3 |
| 20260508022915 | 65 | 225 | 3.0 | 3.0 | 0.00 | 0.00 | 0.01 | 70 | 1015.3 |
| 20260508022355 | 66 | 248 | 1.0 | 1.0 | 0.00 | 0.00 | 0.01 | 68 | 1015.3 |
| 20260508021315 | 68 | 158 | 2.0 | 2.0 | 0.00 | 0.00 | 0.01 | 65 | 1015.5 |
| 20260508020800 | 70 | 248 | 2.0 | 2.0 | 0.00 | 0.00 | 0.01 | 61 | 1015.5 |
| 20260508020241 | 71 | 225 | 2.0 | 2.0 | 0.00 | 0.00 | 0.01 | 60 | 1015.5 |
| 20260508015720 | 74 | 203 | 3.0 | 3.0 | 0.00 | 0.00 | 0.01 | 58 | 1015.5 |
| 20260508015200 | 75 | 293 | 2.0 | 2.0 | 0.00 | 0.00 | 0.01 | 57 | 1015.5 |
| 20260508014645 | 78 | 248 | 2.0 | 2.0 | 0.00 | 0.00 | 0.01 | 56 | 1015.5 |
| 20260508014125 | 78 | 225 | 3.0 | 3.0 | 0.00 | 0.00 | 0.01 | 56 | 1015.5 |
| 20260508013105 | 78 | 293 | 2.0 | 2.0 | 0.00 | 0.00 | 0.01 | 56 | 1015.6 |
| 20260508012546 | 76 | 248 | 2.0 | 2.0 | 0.00 | 0.00 | 0.01 | 57 | 1015.6 |
| 20260508012045 | 76 | 225 | 2.0 | 2.0 | 0.00 | 0.00 | 0.01 | 57 | 1015.6 |
| 20260508011526 | 77 | 203 | 2.0 | 2.0 | 0.00 | 0.00 | 0.01 | 56 | 1015.6 |
| 20260508011010 | 78 | 270 | 3.0 | 3.0 | 0.00 | 0.00 | 0.01 | 56 | 1015.6 |
| 20260508010450 | 75 | 225 | 2.0 | 2.0 | 0.00 | 0.00 | 0.01 | 58 | 1015.8 |
| 20260508005930 | 77 | 225 | 3.0 | 3.0 | 0.00 | 0.00 | 0.01 | 57 | 1015.8 |
| 20260508004856 | 75 | 225 | 3.0 | 3.0 | 0.00 | 0.00 | 0.01 | 57 | 1016.0 |
| 20260508004335 | 76 | 203 | 4.0 | 4.0 | 0.00 | 0.00 | 0.01 | 57 | 1016.0 |
| 20260508003815 | 75 | 225 | 3.0 | 3.0 | 0.00 | 0.00 | 0.01 | 57 | 1016.0 |
| 20260508003255 | 75 | 203 | 3.0 | 3.0 | 0.00 | 0.00 | 0.01 | 57 | 1016.0 |
| 20260508002235 | 73 | 225 | 4.0 | 4.0 | 0.00 | 0.00 | 0.01 | 58 | 1016.0 |
| 20260508001720 | 74 | 248 | 4.0 | 4.0 | 0.00 | 0.00 | 0.01 | 58 | 1016.0 |
| 20260508000640 | 73 | 203 | 4.0 | 4.0 | 0.00 | 0.00 | 0.01 | 58 | 1016.0 |
| 20260508000125 | 73 | 248 | 4.0 | 4.0 | 0.00 | 0.00 | 0.01 | 58 | 1016.0 |
| 20260507235120 | 71 | 270 | 4.0 | 4.0 | 0.00 | 0.00 | 0.01 | 59 | 1016.0 |
| 20260507234545 | 72 | 225 | 6.0 | 6.0 | 0.00 | 0.00 | 0.01 | 59 | 1016.0 |
| 20260507234025 | 72 | 225 | 6.0 | 6.0 | 0.00 | 0.00 | 0.01 | 58 | 1016.0 |
| 20260507233505 | 72 | 270 | 5.0 | 5.0 | 0.00 | 0.00 | 0.01 | 58 | 1016.0 |
| 20260507232951 | 73 | 225 | 6.0 | 6.0 | 0.00 | 0.00 | 0.01 | 58 | 1016.2 |
| 20260507231910 | 73 | 270 | 5.0 | 5.0 | 0.00 | 0.00 | 0.01 | 58 | 1016.2 |
| 20260507231350 | 73 | 225 | 5.0 | 5.0 | 0.00 | 0.00 | 0.01 | 58 | 1016.2 |
| 20260507230835 | 75 | 270 | 5.0 | 5.0 | 0.00 | 0.00 | 0.01 | 57 | 1016.2 |
| 20260507230315 | 75 | 338 | 5.0 | 5.0 | 0.00 | 0.00 | 0.01 | 57 | 1016.4 |
| 20260507225755 | 75 | 225 | 5.0 | 5.0 | 0.00 | 0.00 | 0.01 | 57 | 1016.4 |
| 20260507224720 | 77 | 225 | 6.0 | 6.0 | 0.00 | 0.00 | 0.01 | 56 | 1016.5 |
| 20260507224200 | 77 | 203 | 5.0 | 5.0 | 0.00 | 0.00 | 0.01 | 56 | 1016.5 |
| 20260507223640 | 78 | 225 | 5.0 | 5.0 | 0.00 | 0.00 | 0.01 | 56 | 1016.5 |
| 20260507223120 | 78 | 225 | 5.0 | 5.0 | 0.00 | 0.00 | 0.01 | 55 | 1016.7 |
| 20260507222606 | 80 | 270 | 5.0 | 5.0 | 0.00 | 0.00 | 0.01 | 55 | 1016.7 |
| 20260507222045 | 81 | 203 | 5.0 | 5.0 | 0.00 | 0.00 | 0.01 | 54 | 1016.7 |
| 20260507221526 | 82 | 225 | 3.0 | 3.0 | 0.00 | 0.00 | 0.01 | 54 | 1016.7 |
| 20260507215930 | 84 | 158 | 4.0 | 4.0 | 0.00 | 0.00 | 0.01 | 53 | 1016.7 |
| 20260507215410 | 83 | 180 | 3.0 | 3.0 | 0.00 | 0.00 | 0.01 | 54 | 1016.9 |
| 20260507214850 | 84 | 270 | 5.0 | 5.0 | 0.00 | 0.00 | 0.01 | 53 | 1016.9 |
| 20260507213815 | 82 | 338 | 3.0 | 3.0 | 0.00 | 0.00 | 0.01 | 55 | 1017.1 |
| 20260507213255 | 82 | 113 | 3.0 | 3.0 | 0.00 | 0.00 | 0.01 | 55 | 1017.1 |
| 20260507212735 | 79 | 45 | 4.0 | 4.0 | 0.00 | 0.00 | 0.01 | 56 | 1017.3 |
| 20260507212215 | 82 | 68 | 3.0 | 3.0 | 0.00 | 0.00 | 0.01 | 56 | 1017.3 |
| 20260507211140 | 80 | 68 | 3.0 | 3.0 | 0.00 | 0.00 | 0.01 | 57 | 1017.3 |
| 20260507210621 | 80 | 270 | 4.0 | 4.0 | 0.00 | 0.00 | 0.01 | 58 | 1017.3 |
| 20260507210100 | 79 | 270 | 4.0 | 4.0 | 0.00 | 0.00 | 0.01 | 57 | 1017.3 |
| 20260507205546 | 79 | 135 | 4.0 | 4.0 | 0.00 | 0.00 | 0.01 | 57 | 1017.5 |
| 20260507205026 | 78 | 248 | 3.0 | 3.0 | 0.00 | 0.00 | 0.01 | 59 | 1017.5 |
| 20260507204505 | 77 | 203 | 4.0 | 4.0 | 0.00 | 0.00 | 0.01 | 59 | 1017.5 |
| 20260507203945 | 78 | 203 | 4.0 | 4.0 | 0.00 | 0.00 | 0.01 | 58 | 1017.6 |
| 20260507203431 | 77 | 180 | 4.0 | 4.0 | 0.00 | 0.00 | 0.01 | 59 | 1017.6 |
| 20260507202910 | 79 | 203 | 4.0 | 4.0 | 0.00 | 0.00 | 0.01 | 57 | 1017.7 |
| 20260507202350 | 77 | 248 | 3.0 | 3.0 | 0.00 | 0.00 | 0.01 | 58 | 1017.7 |
| 20260507201315 | 77 | 270 | 2.0 | 2.0 | 0.00 | 0.00 | 0.01 | 61 | 1017.8 |
| 20260507200816 | 76 | 45 | 4.0 | 4.0 | 0.00 | 0.00 | 0.01 | 61 | 1017.8 |
| 20260507200255 | 77 | 113 | 4.0 | 4.0 | 0.00 | 0.00 | 0.01 | 59 | 1017.8 |
| 20260507195736 | 77 | 270 | 2.0 | 2.0 | 0.00 | 0.00 | 0.01 | 61 | 1017.8 |
| 20260507194700 | 76 | 45 | 3.0 | 3.0 | 0.00 | 0.00 | 0.01 | 61 | 1017.9 |
| 20260507194140 | 74 | 113 | 3.0 | 3.0 | 0.00 | 0.00 | 0.01 | 63 | 1018.0 |
| 20260507193100 | 73 | 23 | 3.0 | 3.0 | 0.00 | 0.00 | 0.01 | 64 | 1018.1 |
| 20260507192546 | 73 | 180 | 3.0 | 3.0 | 0.00 | 0.00 | 0.01 | 64 | 1018.1 |
| 20260507192045 | 72 | 23 | 3.0 | 3.0 | 0.00 | 0.00 | 0.01 | 65 | 1018.1 |
| 20260507191525 | 72 | 113 | 3.0 | 3.0 | 0.00 | 0.00 | 0.01 | 65 | 1018.2 |
| 20260507191006 | 71 | 23 | 2.0 | 2.0 | 0.00 | 0.00 | 0.01 | 66 | 1018.2 |
| 20260507185931 | 72 | 113 | 2.0 | 2.0 | 0.00 | 0.00 | 0.01 | 66 | 1018.3 |
| 20260507185411 | 69 | 90 | 2.0 | 2.0 | 0.00 | 0.00 | 0.01 | 70 | 1018.4 |
| 20260507184851 | 69 | 90 | 4.0 | 4.0 | 0.00 | 0.00 | 0.01 | 70 | 1018.4 |
| 20260507184330 | 68 | 68 | 1.0 | 1.0 | 0.00 | 0.00 | 0.01 | 72 | 1018.6 |
| 20260507183811 | 67 | 90 | 0.0 | 0.0 | 0.00 | 0.00 | 0.01 | 72 | 1018.6 |
| 20260507183255 | 66 | 113 | 2.0 | 2.0 | 0.00 | 0.00 | 0.01 | 74 | 1018.6 |
| 20260507182736 | 66 | 315 | 0.0 | 0.0 | 0.00 | 0.00 | 0.01 | 75 | 1018.6 |
| 20260507182216 | 64 | 203 | 0.0 | 0.0 | 0.00 | 0.00 | 0.01 | 77 | 1018.6 |
| 20260507181141 | 65 | 45 | 0.0 | 0.0 | 0.00 | 0.00 | 0.01 | 77 | 1018.6 |
| 20260507180621 | 65 | 23 | 0.0 | 0.0 | 0.00 | 0.00 | 0.01 | 76 | 1018.6 |
| 20260507175541 | 62 | 90 | 0.0 | 0.0 | 0.00 | 0.00 | 0.01 | 80 | 1018.6 |
| 20260507175026 | 62 | 203 | 0.0 | 0.0 | 0.00 | 0.00 | 0.01 | 79 | 1018.6 |
| 20260507174506 | 61 | 248 | 0.0 | 0.0 | 0.00 | 0.00 | 0.01 | 82 | 1018.6 |
| 20260507173425 | 60 | 248 | 0.0 | 0.0 | 0.00 | 0.00 | 0.01 | 84 | 1018.7 |
| 20260507172911 | 60 | 158 | 0.0 | 0.0 | 0.00 | 0.00 | 0.01 | 86 | 1018.6 |
| 20260507172351 | 59 | 248 | 0.0 | 0.0 | 0.00 | 0.00 | 0.01 | 89 | 1018.6 |
| 20260507171851 | 58 | 203 | 0.0 | 0.0 | 0.00 | 0.00 | 0.01 | 89 | 1018.7 |
| 20260507171330 | 57 | 158 | 0.0 | 0.0 | 0.00 | 0.00 | 0.01 | 89 | 1018.7 |
| 20260507170811 | 57 | 23 | 0.0 | 0.0 | 0.00 | 0.00 | 0.01 | 92 | 1018.7 |
| 20260507170256 | 56 | 248 | 0.0 | 0.0 | 0.00 | 0.00 | 0.01 | 93 | 1018.6 |
| 20260507165736 | 56 | 203 | 0.0 | 0.0 | 0.00 | 0.00 | 0.01 | 95 | 1018.6 |
| 20260507165216 | 55 | 113 | 0.0 | 0.0 | 0.00 | 0.00 | 0.01 | 96 | 1018.6 |
| 20260507164656 | 55 | 90 | 1.0 | 1.0 | 0.00 | 0.00 | 0.01 | 96 | 1018.6 |
| 20260507164141 | 54 | 68 | 2.0 | 2.0 | 0.00 | 0.00 | 0.01 | 97 | 1018.7 |
| 20260507163101 | 53 | 23 | 0.0 | 0.0 | 0.00 | 0.00 | 0.01 | 97 | 1018.7 |
| 20260507162541 | 53 | 90 | 0.0 | 0.0 | 0.00 | 0.00 | 0.01 | 98 | 1018.7 |
| 20260507162026 | 53 | 45 | 0.0 | 0.0 | 0.00 | 0.00 | 0.01 | 98 | 1018.7 |
| 20260507161506 | 53 | 45 | 3.0 | 3.0 | 0.00 | 0.00 | 0.01 | 98 | 1018.6 |
| 20260507160946 | 53 | 315 | 0.0 | 0.0 | 0.00 | 0.00 | 0.01 | 98 | 1018.6 |
| 20260507160426 | 52 | 90 | 1.0 | 1.0 | 0.00 | 0.00 | 0.01 | 98 | 1018.5 |
| 20260507155911 | 53 | 113 | 1.0 | 1.0 | 0.00 | 0.00 | 0.01 | 98 | 1018.5 |
| 20260507155351 | 52 | 23 | 0.0 | 0.0 | 0.00 | 0.00 | 0.01 | 98 | 1018.4 |
| 20260507154831 | 52 | 68 | 2.0 | 2.0 | 0.00 | 0.00 | 0.01 | 98 | 1018.4 |
| 20260507154311 | 52 | 338 | 1.0 | 1.0 | 0.00 | 0.00 | 0.01 | 98 | 1018.3 |
| 20260507153236 | 51 | 23 | 3.0 | 3.0 | 0.01 | 0.00 | 0.01 | 98 | 1018.3 |
| 20260507152716 | 51 | 23 | 1.0 | 1.0 | 0.01 | 0.00 | 0.01 | 98 | 1018.4 |
| 20260507152156 | 51 | 90 | 1.0 | 1.0 | 0.01 | 0.00 | 0.01 | 98 | 1018.4 |
| 20260507151641 | 51 | 90 | 3.0 | 3.0 | 0.01 | 0.00 | 0.01 | 98 | 1018.4 |
| 20260507151121 | 51 | 90 | 3.0 | 3.0 | 0.01 | 0.00 | 0.01 | 98 | 1018.4 |
| 20260507150601 | 51 | 90 | 3.0 | 3.0 | 0.01 | 0.00 | 0.01 | 98 | 1018.4 |
| 20260507150041 | 51 | 45 | 1.0 | 1.0 | 0.01 | 0.00 | 0.01 | 98 | 1018.4 |
| 20260507145526 | 51 | 338 | 2.0 | 2.0 | 0.01 | 0.00 | 0.01 | 98 | 1018.4 |
| 20260507145006 | 51 | 90 | 3.0 | 3.0 | 0.01 | 0.00 | 0.01 | 98 | 1018.4 |
| 20260507144446 | 50 | 158 | 0.0 | 0.0 | 0.01 | 0.00 | 0.01 | 98 | 1018.4 |
| 20260507143926 | 50 | 90 | 0.0 | 0.0 | 0.00 | 0.00 | 0.00 | 98 | 1018.3 |
| 20260507143411 | 50 | 23 | 3.0 | 3.0 | 0.00 | 0.00 | 0.00 | 98 | 1018.3 |
| 20260507141831 | 50 | 68 | 3.0 | 3.0 | 0.00 | 0.00 | 0.00 | 98 | 1018.1 |
| 20260507140751 | 50 | 113 | 2.0 | 2.0 | 0.00 | 0.00 | 0.00 | 98 | 1018.0 |
| 20260507140236 | 50 | 113 | 0.0 | 0.0 | 0.00 | 0.00 | 0.00 | 98 | 1018.0 |
| 20260507135716 | 50 | 68 | 0.0 | 0.0 | 0.00 | 0.00 | 0.00 | 98 | 1018.0 |
| 20260507134636 | 50 | 23 | 3.0 | 3.0 | 0.00 | 0.00 | 0.00 | 98 | 1017.9 |
| 20260507133601 | 50 | 90 | 1.0 | 1.0 | 0.00 | 0.00 | 0.00 | 98 | 1017.7 |
| 20260507133041 | 50 | 45 | 1.0 | 1.0 | 0.00 | 0.00 | 0.00 | 98 | 1017.7 |
| 20260507132521 | 50 | 90 | 0.0 | 0.0 | 0.00 | 0.00 | 0.00 | 98 | 1017.7 |
| 20260507132021 | 50 | 68 | 0.0 | 0.0 | 0.00 | 0.00 | 0.00 | 98 | 1017.7 |
| 20260507131506 | 50 | 68 | 1.0 | 1.0 | 0.00 | 0.00 | 0.00 | 98 | 1017.6 |
| 20260507130946 | 50 | 23 | 0.0 | 0.0 | 0.00 | 0.00 | 0.00 | 98 | 1017.6 |
| 20260507130426 | 50 | 315 | 0.0 | 0.0 | 0.00 | 0.00 | 0.00 | 98 | 1017.5 |
| 20260507125351 | 50 | 0 | 0.0 | 0.0 | 0.00 | 0.00 | 0.00 | 98 | 1017.6 |
| 20260507124831 | 50 | 158 | 0.0 | 0.0 | 0.00 | 0.00 | 0.00 | 98 | 1017.6 |
| 20260507124312 | 50 | 158 | 0.0 | 0.0 | 0.00 | 0.00 | 0.00 | 98 | 1017.5 |
| 20260507123752 | 50 | 293 | 0.0 | 0.0 | 0.00 | 0.00 | 0.00 | 97 | 1017.5 |
| 20260507123236 | 50 | 45 | 0.0 | 0.0 | 0.00 | 0.00 | 0.00 | 97 | 1017.5 |
| 20260507122716 | 50 | 45 | 2.0 | 2.0 | 0.00 | 0.00 | 0.00 | 97 | 1017.4 |
| 20260507122156 | 50 | 23 | 0.0 | 0.0 | 0.00 | 0.00 | 0.00 | 97 | 1017.4 |
| 20260507121121 | 50 | 158 | 0.0 | 0.0 | 0.00 | 0.00 | 0.00 | 97 | 1017.5 |
| 20260507120602 | 50 | 23 | 0.0 | 0.0 | 0.00 | 0.00 | 0.00 | 97 | 1017.5 |
| 20260507120041 | 50 | 113 | 0.0 | 0.0 | 0.00 | 0.00 | 0.00 | 97 | 1017.5 |
| 20260507115521 | 50 | 68 | 0.0 | 0.0 | 0.00 | 0.00 | 0.00 | 97 | 1017.6 |
| 20260507115006 | 50 | 225 | 0.0 | 0.0 | 0.00 | 0.00 | 0.00 | 97 | 1017.6 |
| 20260507114446 | 50 | 113 | 0.0 | 0.0 | 0.00 | 0.00 | 0.00 | 97 | 1017.6 |
| 20260507113906 | 50 | 68 | 0.0 | 0.0 | 0.00 | 0.00 | 0.00 | 97 | 1017.6 |
| 20260507113351 | 50 | 23 | 0.0 | 0.0 | 0.00 | 0.00 | 0.00 | 97 | 1017.6 |
| 20260507112811 | 50 | 68 | 0.0 | 0.0 | 0.00 | 0.00 | 0.00 | 97 | 1017.8 |
| 20260507112252 | 50 | 68 | 0.0 | 0.0 | 0.00 | 0.00 | 0.00 | 97 | 1017.8 |
| 20260507111736 | 50 | 90 | 0.0 | 0.0 | 0.00 | 0.00 | 0.00 | 97 | 1017.7 |
| 20260507111217 | 50 | 270 | 0.0 | 0.0 | 0.00 | 0.00 | 0.00 | 97 | 1017.7 |
| 20260507110136 | 50 | 90 | 0.0 | 0.0 | 0.00 | 0.00 | 0.00 | 97 | 1017.7 |
| 20260507105622 | 50 | 68 | 0.0 | 0.0 | 0.00 | 0.00 | 0.00 | 97 | 1017.7 |
| 20260507105101 | 50 | 68 | 0.0 | 0.0 | 0.00 | 0.00 | 0.00 | 97 | 1017.7 |
| 20260507104022 | 50 | 45 | 0.0 | 0.0 | 0.00 | 0.00 | 0.00 | 97 | 1017.8 |
| 20260507103506 | 50 | 68 | 0.0 | 0.0 | 0.00 | 0.00 | 0.00 | 97 | 1017.8 |
| 20260507102946 | 50 | 90 | 0.0 | 0.0 | 0.00 | 0.00 | 0.00 | 97 | 1017.8 |
| 20260507102427 | 50 | 113 | 1.0 | 1.0 | 0.00 | 0.00 | 0.00 | 97 | 1017.8 |
| 20260507101906 | 50 | 23 | 0.0 | 0.0 | 0.00 | 0.00 | 0.00 | 97 | 1017.9 |
| 20260507101351 | 50 | 45 | 1.0 | 1.0 | 0.00 | 0.00 | 0.00 | 97 | 1017.9 |
| 20260507100251 | 50 | 45 | 2.0 | 2.0 | 0.00 | 0.00 | 0.00 | 97 | 1017.9 |
| 20260507095736 | 50 | 113 | 0.0 | 0.0 | 0.00 | 0.00 | 0.00 | 97 | 1017.9 |
| 20260507095216 | 50 | 90 | 1.0 | 1.0 | 0.00 | 0.00 | 0.00 | 97 | 1018.0 |
| 20260507094656 | 50 | 113 | 1.0 | 1.0 | 0.00 | 0.00 | 0.00 | 97 | 1018.0 |
| 20260507094137 | 50 | 68 | 0.0 | 0.0 | 0.00 | 0.00 | 0.00 | 97 | 1018.0 |
| 20260507093621 | 50 | 113 | 0.0 | 0.0 | 0.00 | 0.00 | 0.00 | 97 | 1018.0 |
| 20260507093101 | 50 | 315 | 0.0 | 0.0 | 0.00 | 0.00 | 0.00 | 97 | 1018.0 |
| 20260507092542 | 50 | 338 | 0.0 | 0.0 | 0.00 | 0.00 | 0.00 | 97 | 1018.0 |
| 20260507092021 | 50 | 90 | 0.0 | 0.0 | 0.00 | 0.00 | 0.00 | 97 | 1018.0 |
| 20260507091507 | 50 | 90 | 1.0 | 1.0 | 0.00 | 0.00 | 0.00 | 97 | 1018.1 |
| 20260507085852 | 50 | 68 | 0.0 | 0.0 | 0.00 | 0.00 | 0.00 | 97 | 1018.2 |